Wind_Speed
5 5 10 12 16 18 15 19 21 20 20 15 17 16 12 8 11 10 11 8 14 14 8 17 23 21 26 29 29 34 33 31 32 30 31 32 30 33 34 32 31 31 33 30
6 17 19 16 17 21 20 21 21 22 15 11 17 19 15 13 15 14 15 12 10 14 15 11 20 24 18 28 31 31 32 32 31 29 27 29 28 31 34 32 32 33 35 31
11 16 18 18 18 17 17 17 18 20 15 18 16 18 16 11 12 15 17 17 12 11 14 11 14 23 29 31 35 32 35 35 34 30 29 26 26 27 29 33 33 32 32 32
11 10 10 17 20 19 22 21 20 19 14 15 11 10 16 14 16 18 18 16 15 12 11 14 9 21 30 30 33 33 32 33 34 32 29 29 27 26 23 32 35 33 32 33
17 18 22 21 18 14 11 12 16 18 17 12 15 5 6 13 17 17 15 17 17 12 12 10 15 15 32 35 33 30 31 31 30 33 30 28 26 25 27 32 31 30 30 29
18 20 14 8 11 13 15 12 18 12 9 10 12 11 12 13 23 21 21 19 18 14 12 8 15 14 25 30 32 32 29 30 29 32 31 31 32 28 29 32 35 32 31 31
14 5 1 3 10 9 7 5 2 2 4 5 5 10 20 12 20 22 21 19 19 16 12 11 10 8 20 25 28 32 30 28 33 34 33 35 32 35 35 35 36 37 35 34
6 10 4 3 9 8 11 3 1 4 2 5 5 6 8 16 21 21 23 19 16 15 15 15 11 8 19 24 26 29 30 29 31 32 31 32 33 35 34 36 38 41 42 41
6 7 8 11 9 3 3 4 5 3 4 3 4 5 10 9 9 21 18 13 11 16 16 15 11 9 19 26 30 33 32 30 29 29 29 28 34 31 34 36 40 40 40 42
4 9 8 15 2 3 4 7 3 0 3 4 3 8 3 17 14 14 16 15 12 9 15 13 13 10 20 25 25 25 26 28 30 29 28 29 32 33 33 36 40 38 37 39
8 5 10 10 5 7 9 9 5 6 3 2 4 2 10 16 16 9 5 4 5 9 14 9 8 13 19 22 24 23 24 24 24 26 26 27 29 31 34 38 37 36 35 36
3 4 6 17 7 7 8 12 8 4 2 1 2 2 17 21 13 10 15 13 13 16 13 13 14 17 20 21 19 18 12 9 4 14 17 15 19 19 21 28 31 30 27 25
6 3 7 10 4 4 11 18 22 9 5 4 3 5 17 20 9 15 15 17 17 19 19 18 18 16 19 26 24 27 28 24 18 17 16 15 15 12 13 14 15 13 14 13
13 3 5 5 10 10 15 20 25 15 5 4 8 9 22 25 19 20 19 20 21 21 21 20 19 18 25 26 26 27 29 31 33 34 33 31 27 23 19 17 16 16 15 17
5 3 5 13 12 3 21 20 25 21 17 8 12 13 19 22 18 20 19 22 26 25 25 22 20 18 24 27 30 31 32 33 32 37 36 32 32 32 29 29 29 27 27 22
2 4 6 2 11 7 19 24 18 19 19 10 13 14 17 17 19 25 21 25 26 25 23 22 22 21 25 29 32 33 33 34 35 37 36 38 39 36 33 31 32 29 26 23
4 4 4 4 8 1 7 22 12 18 22 10 11 9 14 21 25 23 22 25 24 22 20 23 20 23 27 29 27 33 31 36 37 37 33 36 35 31 31 31 29 28 27 25
7 7 1 4 4 7 5 17 9 7 25 25 17 16 9 13 19 25 23 22 23 21 22 20 23 31 29 30 32 39 38 38 38 38 36 28 32 35 32 31 30 28 29 30
5 4 4 3 4 1 14 20 12 7 14 24 20 20 15 6 16 25 23 20 19 19 21 25 28 32 38 34 30 40 39 40 40 34 33 31 34 35 35 32 30 30 33 32
6 4 5 4 5 9 13 23 21 8 14 23 19 18 17 15 17 8 16 15 20 28 30 28 29 36 40 33 29 39 35 35 33 28 30 32 33 34 32 30 30 30 30 28
7 5 7 7 6 4 14 24 13 9 4 16 14 13 15 11 7 4 9 20 27 27 30 29 33 35 31 28 29 35 33 33 26 30 35 35 33 35 34 34 32 32 31 31
5 5 4 4 6 6 18 9 8 4 4 7 10 11 11 8 10 12 15 17 25 28 29 30 32 34 36 34 32 32 34 26 31 35 38 36 36 33 33 34 33 33 30 28
4 3 2 4 3 3 3 3 4 4 3 6 7 7 8 12 14 15 15 18 24 26 26 26 26 30 32 32 30 30 27 30 32 38 37 35 35 33 32 34 32 32 29 27
2 1 2 2 4 3 1 2 2 2 4 7 8 9 10 13 12 14 13 19 21 24 25 24 26 29 30 33 35 34 30 31 36 36 34 35 36 34 33 30 29 28 27 24
3 3 1 2 3 5 3 4 3 5 5 7 13 12 12 11 13 13 14 19 20 22 23 24 26 29 30 34 37 34 31 34 38 38 37 36 35 33 31 29 26 24 26 25
2 4 3 3 3 2 3 3 5 7 7 7 8 11 15 16 15 17 18 17 17 19 21 27 29 32 33 35 34 32 31 34 35 34 32 29 30 30 30 29 27 20 18 21
Wind_Direction
257 240 238 236 228 241 260 266 268 270 271 273 274 278 280 287 291 291 281 270 250 242 232 212 178 199 196 189 182 186 190 189 177 177 174 180 186 192 197 196 195 198 202 205
277 256 265 265 257 257 269 278 272 276 272 255 269 271 267 262 268 264 275 278 275 256 226 201 187 190 213 188 191 186 187 192 187 182 182 182 185 190 195 199 198 205 202 204
270 270 305 286 286 290 277 272 274 273 302 279 260 273 262 250 251 271 264 265 250 263 238 208 196 183 204 192 189 188 190 190 188 177 175 180 182 188 193 200 204 202 204 207
272 273 287 301 285 274 272 269 265 271 276 271 202 258 249 242 250 254 258 258 263 250 257 220 211 189 187 199 188 192 188 188 190 187 181 181 181 186 196 193 198 197 204 211
262 291 292 288 287 303 276 281 261 262 260 265 246 253 260 236 244 241 242 250 247 241 240 243 220 204 187 184 186 188 189 186 186 186 190 192 192 193 196 191 193 197 200 208
281 298 290 288 307 262 262 278 257 244 244 245 242 209 246 221 225 237 241 238 251 228 226 229 228 184 186 187 183 188 183 186 186 186 189 190 192 189 192 192 196 201 208 213
328 294 208 340 307 289 235 304 305 218 205 233 171 202 241 237 228 229 232 236 237 225 212 213 233 187 182 185 185 177 178 183 188 191 193 193 190 193 196 199 201 208 209 215
343 325 24 280 295 275 290 225 270 246 236 269 260 243 249 231 229 225 233 230 235 224 212 214 222 200 168 178 182 178 184 186 187 191 196 197 197 199 200 204 210 219 218 224
324 280 315 300 314 295 8 172 274 281 219 251 235 300 326 341 284 228 236 220 221 223 213 208 205 178 175 180 180 180 184 190 190 191 200 205 205 201 204 210 219 223 227 227
271 288 290 328 353 270 275 325 317 312 288 281 304 303 286 328 314 212 225 231 242 233 209 193 196 166 174 174 175 181 181 183 192 196 203 211 209 205 209 215 217 221 225 223
293 225 289 329 30 353 6 2 338 290 222 247 308 269 341 334 344 356 58 220 256 210 179 163 156 151 153 160 167 170 180 183 193 203 210 216 213 209 214 217 220 222 222 221
303 290 286 291 305 238 356 342 337 273 238 175 251 301 347 342 328 42 51 39 37 58 71 73 76 78 66 69 90 94 100 125 151 204 207 202 207 210 206 205 212 214 212 209
336 309 309 338 42 50 3 345 346 318 199 320 21 353 338 340 35 55 61 58 59 64 68 66 60 59 63 60 61 63 66 66 70 82 92 84 74 92 90 94 92 114 137 144
346 260 243 262 284 311 353 359 8 13 30 329 23 350 344 353 31 49 53 58 62 63 65 69 64 62 62 63 63 63 64 69 72 71 67 65 68 70 67 73 81 87 87 93
313 286 284 293 264 153 30 9 15 19 3 32 10 15 354 353 32 50 59 64 60 60 62 65 67 65 65 65 65 66 63 66 70 74 72 69 73 80 81 88 90 94 94 92
335 279 322 307 117 72 39 15 22 18 6 5 17 32 4 3 30 45 46 60 59 55 58 59 63 65 63 64 62 66 66 66 72 72 76 80 77 79 80 76 75 75 79 80
294 307 329 309 324 351 25 9 10 25 27 348 16 3 12 23 38 34 34 48 57 56 56 52 53 59 60 61 61 62 65 67 64 66 69 77 82 81 79 80 80 77 75 71
291 311 277 288 338 40 2 14 358 4 26 15 12 0 28 48 53 43 31 43 44 42 44 42 45 50 48 56 63 66 60 61 62 60 59 61 76 76 75 74 71 72 74 71
267 311 322 14 24 305 7 354 343 352 28 13 6 6 5 42 61 38 19 34 43 42 42 43 48 53 49 43 55 67 60 60 59 52 57 61 68 72 72 67 66 70 74 71
357 34 46 352 72 23 342 337 331 273 37 359 5 16 17 13 63 30 6 30 44 49 46 44 48 53 49 39 48 65 59 57 54 54 60 63 66 67 67 68 65 68 68 67
334 355 43 6 68 37 348 336 343 61 309 340 3 19 34 45 47 23 28 44 47 49 48 46 51 54 47 45 53 56 56 51 54 62 68 67 64 66 68 70 66 66 66 66
353 345 360 11 54 19 5 352 55 323 332 337 10 24 45 53 60 55 50 48 45 45 42 44 51 50 49 52 52 54 52 53 66 71 67 63 61 60 62 64 60 60 57 54
34 10 18 43 78 53 346 41 3 16 350 356 33 38 55 67 61 57 58 54 52 52 52 50 55 55 50 52 55 54 50 67 69 70 67 66 66 59 57 55 53 51 48 47
324 338 84 166 167 140 83 170 36 347 53 37 50 62 65 71 62 61 58 54 51 48 46 48 54 54 48 52 62 67 67 67 73 67 62 62 62 62 59 55 52 51 46 44
243 353 25 73 111 139 120 51 41 60 55 68 53 55 69 76 63 65 65 58 55 53 50 52 54 53 48 56 62 63 66 70 69 68 65 63 64 65 64 62 52 53 50 44
211 190 168 205 166 147 102 85 66 77 60 58 87 78 65 79 82 79 71 66 64 61 61 62 62 64 62 64 64 64 67 72 73 69 67 67 66 63 60 59 57 53 49 43
Height
775 780 774 767 767 759 754 755 752 743 735 738 733 729 725 723 720 720 713 712 704 703 710 713 714 716 722 726 729 732 737 742 749 752 754 761 767 773 778 781 783 788 791 795
775 769 754 754 752 752 750 748 747 733 732 737 729 725 720 718 715 713 709 708 705 699 703 708 711 711 719 722 726 730 733 738 744 748 753 758 764 770 775 779 781 783 787 791
774 751 751 750 750 752 748 746 739 736 733 725 725 726 717 709 706 702 700 697 702 702 698 699 701 703 710 715 721 725 728 733 739 744 750 757 762 768 772 775 776 779 784 787
762 748 745 747 750 748 748 733 733 736 741 733 719 725 710 704 702 698 694 691 686 691 694 692 691 694 700 711 715 721 725 728 734 741 748 752 755 760 764 766 772 775 779 782
755 748 749 753 745 746 740 731 731 730 731 730 723 729 708 699 697 690 687 684 683 685 685 686 687 691 696 702 708 715 722 727 732 737 743 749 754 759 761 765 769 772 775 779
754 743 744 739 739 739 731 730 725 722 721 717 705 719 695 691 681 680 677 676 673 679 682 685 685 685 691 697 702 709 717 722 728 734 739 743 748 752 756 759 763 767 771 775
761 744 736 743 744 725 729 728 718 723 717 734 689 704 680 668 667 667 666 668 667 667 673 678 680 680 688 693 699 705 712 719 724 729 734 738 742 746 749 754 757 761 764 768
797 766 745 743 745 740 730 733 738 745 744 729 689 710 666 654 652 653 655 658 661 661 664 668 674 677 681 688 696 701 708 714 719 725 730 734 738 741 744 748 750 754 756 760
797 769 739 741 732 735 720 723 707 717 727 706 681 664 651 652 652 647 650 652 656 656 658 664 671 674 679 685 689 695 702 708 716 721 727 732 733 737 739 741 745 747 751 754
800 785 745 731 735 732 729 727 706 712 715 703 681 683 669 669 645 638 646 648 650 651 653 660 667 674 678 683 690 697 702 707 712 718 723 728 729 733 735 737 738 742 745 749
789 791 752 744 749 743 734 732 725 714 697 700 690 682 685 676 656 648 643 640 645 643 649 657 664 671 676 683 690 695 702 706 712 716 721 725 727 730 731 731 734 734 742 746
791 786 774 753 742 750 740 748 744 728 695 696 695 685 692 684 667 653 652 655 652 652 657 665 672 678 685 690 695 701 707 711 714 718 720 723 726 729 730 729 732 734 740 748
795 784 781 754 746 743 753 750 745 721 717 695 693 694 703 689 670 668 667 670 668 670 674 679 684 691 696 700 707 709 712 715 719 718 721 725 729 730 733 734 738 741 744 751
797 787 784 783 775 772 771 758 752 739 737 727 727 729 719 698 681 679 681 680 679 684 687 692 699 706 709 715 718 720 722 724 725 727 731 734 737 740 747 746 744 745 755 760
796 786 782 775 771 775 782 774 767 763 762 745 740 740 742 732 704 699 698 695 693 697 700 707 713 719 723 726 728 730 731 733 736 735 741 748 750 749 756 755 755 758 758 765
795 790 780 774 767 771 778 783 776 777 776 764 752 756 762 755 730 716 718 712 714 720 725 727 728 731 735 739 738 741 744 746 747 747 752 755 757 762 764 766 760 766 771 774
796 789 785 775 763 758 783 798 789 798 793 787 776 776 774 766 756 755 746 734 739 744 745 745 746 746 754 753 755 752 756 755 756 758 764 765 764 772 773 771 776 777 780 782
800 788 788 784 770 784 802 802 798 794 802 797 796 791 777 781 778 771 769 763 762 762 761 763 763 761 765 765 765 764 764 765 767 769 773 782 779 775 779 781 784 787 785 786
793 789 793 780 782 784 786 804 811 805 808 811 810 802 792 777 771 780 791 787 785 784 781 779 780 778 775 778 779 773 775 777 778 785 788 789 786 785 787 793 795 794 792 795
790 794 797 805 807 815 820 812 805 800 803 821 820 815 808 793 779 818 813 805 798 796 794 794 791 788 787 793 792 784 789 790 794 800 799 799 797 796 800 801 803 802 801 803
811 816 826 827 810 821 833 821 803 815 847 839 834 830 827 824 827 830 823 815 812 810 807 807 803 801 806 807 805 801 803 804 810 808 806 806 806 807 808 809 808 807 809 810
828 833 836 846 829 834 840 828 839 854 850 847 842 839 838 837 835 833 829 825 823 821 820 819 814 813 814 814 814 815 813 821 819 816 814 814 815 817 817 815 816 815 815 818
837 841 842 842 848 856 858 859 857 856 854 851 846 845 843 840 839 839 836 836 836 835 834 834 830 829 830 831 829 827 830 829 827 822 821 822 824 824 824 821 821 820 824 824
839 839 839 842 851 858 860 858 858 857 856 854 851 850 848 846 846 845 844 845 845 845 844 844 842 841 841 840 837 835 837 836 832 831 830 830 829 830 830 830 831 831 831 831
844 840 840 844 848 857 859 859 858 859 859 858 857 855 853 852 853 852 853 855 855 854 853 851 850 849 849 848 845 843 845 841 836 835 836 837 839 840 839 840 842 840 840 838
841 836 835 840 845 849 855 859 859 859 860 859 859 861 862 861 861 864 865 867 865 863 862 859 858 858 858 855 854 854 853 847 846 847 849 852 850 848 848 847 845 844 844 843